Погода Ханты-Мансийск

Хотите узнать прогноз погоды Ханты-Мансийск? Тогда Вам сюда: Погода Ханты-Мансийск

Поиск расширенной информации на нашем сайте:

Полезная информация:

Новости сайта



02.01.2020
Опубликован Долгосрочный прогноз погоды по городам России и ближнего зарубежья на январь 2020 года.
Карты: Прогноз на январь и февраль 2020 года, Сравнение прогнозируемой аномалии приземной температуры воздуха на январь 2020 года по разным моделям.




Погода Ханты-Мансийск - сегодня

Время (UTC), дата Ветер
(°,м/с) 
Видим.   Явления Облачность Т
(°С)
Тd
(°С)
f(%) Тe
(°С)
Pmin
(гПа)
dP
(гПа)
Po
(мм)
O2
(г/м3)
Тmin Tmax R s Состояние
почвы
18 24.01.20 210 (ЮЗ) 10 км  слаб. снег  10/0 средняя 
[Ac As]
-7.8 -9.3 89 -9  990.7  0.4  739  307           
21 24.01.20 180 (Ю) 10 км  {снег}  10/0 средняя 
[Ac As]
-10.4 -11.8 89 -12  990.7  0.1  739  311           
00 25.01.20 180 (Ю) 10 км  ледяные иглы{снег}  10/0 верхняя 
[Cs]
-13.2 -14.8 88 -15  990.8  0.1  739  314           
03 25.01.20 150 (ЮВ) 10 км  слаб. снег [диам. изморози 1 мм]  10/4 600 м средняя, верхняя 
[Sc|Ac As|Cs]
-14.8 -16.6 86 -15  990.8  0.1  739  316  -16    0.2  50  равномерный
сухой снег
100% 
06 25.01.20 170 (Ю) 10 км  слаб. снег [диам. изморози 1 мм]  8/4 600 м средняя 
[Sc|Ac As]
-15.4 -17.4 85 -15  991.5  0.7  739  317           
09 25.01.20 180 (Ю) 4000 м  слаб. снег [диам. изморози 1 мм]  8/0 средняя 
[As op]
-14.1 -15.9 86 -14  992.1  0.6  740  316           
12 25.01.20 170 (Ю) 4000 м  слаб. снег [диам. изморози 1 мм]  10/6 300 м средняя 
[St|As op]
-16.2 -18.1 85 -16  993.2  1.1  741  319           
15 25.01.20 200 (Ю) 4000 м  слаб. снег [диам. изморози 1 мм]  8/0 средняя 
[As op]
-18.3 -20.5 83 -19  994.5  1.3  741  322    -14  0.5     
18 25.01.20 170 (Ю) 10 км  ледяные иглы{снег} [диам. изморози 2 мм]  6/0 верхняя 
[Cs]
-19.1 -21.5 81 -22  995  0.5  742  323           
21 25.01.20 170 (Ю) 4000 м  слаб. снег [диам. изморози 2 мм]  8/4 100 м средняя 
[St|As op]
-20.1 -22.5 81 -23  995.8  0.8  742  325           
00 26.01.20 160 (Ю) 10 км  слаб. снег [диам. изморози 3 мм]  4/3 300 м средняя 
[St|As trans]
-21.1 -23.7 80 -24  995.9  0.1  743  326           
03 26.01.20 160 (Ю) 4000 м  слаб. снег [диам. изморози 3 мм]  4/1 300 м средняя 
[St|As op]
-19.7 -22.2 80 -20  996.8  0.9  743  324  -21.3    0.3  50  равномерный
сухой снег
100% 
06 26.01.20 150 (ЮВ) 10 км  {снег} [диам. изморози 3 мм]  8/0 верхняя 
[Ci fib]
-19.4 -21.8 81 -22  997.8  744  324           
09 26.01.20 130 (ЮВ) 10 км  [диам. изморози 2 мм]  10/0 верхняя 
[Cs]
-18.9 -21.2 82 -22  998  0.2  744  324           
12 26.01.20 110 (В) 10 км  ледяные иглы{снег} [диам. изморози 2 мм]  10/0 верхняя 
[Cc]
-18.9 -21.2 82 -19  998.3  0.3  744  324           
15 26.01.20 110 (В) 10 км  ледяные иглы{снег} [диам. изморози 2 мм]  10/0 верхняя 
[Cs]
-18.7 -20.9 83 -21  997.6  -0.7  744  323    -18.1  0.2     
18 26.01.20 060 (СВ) 4000 м  слаб. снег [диам. изморози 4 мм]  10/10 300 м 
[Frnb|Ns]
-17.6 -19.8 83 -18  996.2  -1.4  743  321           
21 26.01.20 040 (СВ) 10 км  слаб. снег [диам. изморози 4 мм]  10/10 300 м 
[St]
-19.5 -21.9 81 -20  994.3  -1.9  741  323           
00 27.01.20 030 (СВ) 4000 м  слаб. снег [диам. изморози 4 мм]  10/10 300 м 
[Frnb|Ns]
-19.3 -21.7 81 -20  992.7  -1.6  740  322           
03 27.01.20 040 (СВ) 4000 м  слаб. снег [диам. изморози 4 мм]  10/10 300 м 
[Frnb|Ns]
-18.2 -20.4 83 -18  991.2  -1.4  739  321  -19.8    53  равномерный
сухой снег
100% 
06 27.01.20 010 (С) 4000 м  слаб. снег [диам. изморози 3 мм]  10/0 средняя 
[As op]
-17.5 -19.8 82 -20  990.1  -1.1  738  319           
09 27.01.20 350 (С) 4000 м  слаб. снег [диам. изморози 3 мм]  10/0 средняя 
[As op]
-17.4 -19.6 83 -20  989.7  -0.3  738  319           
12 27.01.20 340 (С) 4000 м  слаб. снег [диам. изморози 3 мм]  10/0 средняя 
[As op]
-17.7 -20 82 -18  990.8  739  320           
15 27.01.20 330 (СЗ) 4000 м  слаб. снег [диам. изморози 3 мм]  10/0 средняя 
[As op]
-18.3 -20.6 82 -22  992  1.3  740  321    -17.1     
18 27.01.20 320 (СЗ) 4000 м  слаб. снег [диам. изморози 3 мм]  10/0 средняя 
[Ac As]
-19.7 -22.1 81 -22  993.9  1.7  741  323           
Время (UTC), дата Ветер
(°,м/с) 
Видим.   Явления Облачность Т
(°С)
Тd
(°С)
f(%) Тe
(°С)
Pmin
(гПа)
dP
(гПа)
Po
(мм)
O2
(г/м3)
Тmin Tmax R s Состояние
почвы

Для получения пояснительной информации подведите курсор к названию столбца.

ПОГОДА Ханты-Мансийск - архив

Всё, что Вы хотите узнать о погоде Ханты-Мансийск - удобно и подробно!

Выберите нужную дату (начиная с 1 января 2019* года) и нажмите кнопку "Найти".
Будут отображены архивные сводки погоды по пункту Ханты-Мансийск, начиная с указанной даты.


Отображать данные в формате CSV (для использования в таблицах Excel)


Внимание! Наш архив погоды предназначен исключительно для личного некоммерческого использования в познавательных целях. Если Вам необходимы официальные справки о состоянии погоды (для производственных, юридических, коммерческих и т.п. целей), обращайтесь в органы Росгидромета.

*Примечание: данная дата относится к архиву по метеостанциям СССР (Россия, СНГ, Балтия).
Архив по метеостанциям Зарубежной Европы и Азии (кроме Китая) хранится 10 дней, по другим регионам земного шара (Китай, Африка, Америка, Австралия, Океания) - 1 день.

Ханты-Мансийск - район местоположения метеостанции


Название, широта, долгота, высота метеостанции:
Ханты-Мансийск 61°ш. 69°д. 46 м над ур. моря [Российская Федерация]

Дополнительная информация

В oтличие oт бoльшинства пoгoдных сайтoв мы публикуем пoдрoбную метеoинфoрмацию в детальнoм прoфессиoнальнoм фoрмате.

Характеристики температуры и влажнoсти вoздуха измеряются на высoте 2 м в тени вдали oт зданий и деревьев.
Скoрoсть ветра измеряется на высoте 10 м (на урoвне рoста челoвека скoрoсть ветра ниже в 1.5-2 раза). Если метеoстанция нахoдится в гoрoде или в лесу, тo скoрoсть ветра занижена на 2-4 м/с пo сравнению с oткрытым местoм. Скoрoсть ветра над акватoриями крупных рек и oзёр, а также на вершинах хoлмoв на 2-5 м/с выше, чем в oбычных услoвиях.
Атмoсфернoе давление в разных тoчках местнoсти мoжет значительнo oтличаться oт давления на метеoстанции, в зависимoсти oт услoвий рельефа (при пoдъёме на 10 м давление пoнижается примернo на 1 мм рт.ст.).